Location: Big Meadows
(38.5260°N, 78.4400°W)
Time: 15:14:04
(UTC-04:00)

H-2A R/B - Visible Passes

Search period start: 27 July 2016 00:00
Search period end: 06 August 2016 00:00
Orbit: 734 x 838 km, 98.4° (Epoch: 27 July)

Date Brightness Start Highest point End Pass type
(mag) Time Alt. Az. Time Alt. Az. Time Alt. Az.
27 Jul 4.2 21:33:13 10° E 21:35:17 12° ENE 21:37:20 10° NE visible
27 Jul 2.0 23:13:14 69° S 23:13:57 86° WSW 23:19:18 10° NNW visible
28 Jul 2.5 22:42:13 43° ESE 22:43:19 50° ENE 22:48:26 10° N visible
29 Jul 4.0 00:22:52 20° W 00:22:55 20° W 00:26:43 10° NW visible
29 Jul 3.3 22:11:12 23° E 22:12:48 26° ENE 22:17:09 10° NNE visible
29 Jul 3.1 23:51:51 37° WSW 23:52:00 38° W 23:56:55 10° NNW visible
30 Jul 4.0 21:40:11 11° E 21:42:26 14° ENE 21:45:08 10° NNE visible
30 Jul 2.1 23:20:50 70° SW 23:21:13 74° WSW 23:26:31 10° NNW visible
31 Jul 2.2 22:49:49 53° ESE 22:50:33 58° ENE 22:55:43 10° N visible
01 Aug 4.2 00:30:27 16° W 00:30:27 16° W 00:33:32 10° NW visible
01 Aug 3.1 22:18:48 28° E 22:20:00 30° ENE 22:24:33 10° N visible
01 Aug 3.4 23:59:27 32° W 23:59:27 32° W 00:03:59 10° NW visible
02 Aug 3.9 21:47:47 14° E 21:49:35 16° ENE 21:52:46 10° NNE visible
02 Aug 2.3 23:28:26 62° WSW 23:28:29 63° W 23:33:42 10° NNW visible
03 Aug 2.0 22:57:25 66° E 22:57:47 68° ENE 23:02:59 10° N visible
04 Aug 4.4 00:38:04 13° W 00:38:04 13° W 00:40:10 10° WNW visible
04 Aug 2.8 22:26:24 33° E 22:27:12 35° ENE 22:31:55 10° N visible
05 Aug 3.7 00:07:03 27° W 00:07:03 27° W 00:11:01 10° NW visible
05 Aug 3.7 21:55:24 17° E 21:56:45 19° ENE 22:00:19 10° NNE visible
05 Aug 2.6 23:36:03 52° W 23:36:03 52° W 23:40:51 10° NNW visible
